DW8295 Weather Reports


Display with metric or nautical units.
time (UTC)temp
F
wind
direction
speed
MPH
gust
MPH
rain 1hr
in
rain 24hr
in
rain mn
in
humidity
%
barometer
mb
20260903145316 63 193 0.0 0.0 0.00 0.11 0.11 95 1014.3
20260903144819 63 193 0.0 0.0 0.00 0.11 0.11 95 1014.3
20260903144537 63 193 0.0 0.0 0.01 0.11 0.11 95 1014.3
20260903143819 63 193 0.0 0.0 0.01 0.11 0.11 95 1014.3
20260903143313 63 193 0.0 0.0 0.01 0.11 0.11 95 1014.3
20260903142812 63 193 0.0 0.0 0.01 0.11 0.11 95 1014.4
20260903142310 63 193 0.0 0.0 0.01 0.11 0.11 95 1014.3
20260903141810 63 193 0.0 0.0 0.01 0.11 0.11 95 1014.3
20260903141308 63 193 0.0 0.0 0.01 0.11 0.11 95 1014.3
20260903141027 63 193 0.0 0.0 0.01 0.11 0.11 95 1014.3
20260903140304 62 193 0.0 0.0 0.01 0.11 0.11 95 1014.4
20260903135802 62 193 0.0 0.0 0.02 0.11 0.11 95 1014.5
20260903135527 62 193 0.0 0.0 0.02 0.11 0.11 95 1014.5
20260903134801 62 193 0.0 5.0 0.01 0.10 0.10 95 1014.5
20260903134301 62 193 0.0 5.0 0.01 0.10 0.10 95 1014.5
20260903133800 62 180 0.0 0.0 0.01 0.10 0.10 95 1014.4
20260903133300 62 180 0.0 7.0 0.01 0.10 0.10 95 1014.4
20260903132757 62 180 0.0 7.0 0.01 0.10 0.10 95 1014.5
20260903132517 62 180 0.0 1.0 0.01 0.10 0.10 95 1014.5
20260903131756 62 180 0.0 5.0 0.01 0.10 0.10 95 1014.5
20260903131257 62 180 1.0 6.0 0.01 0.10 0.10 94 1014.6
20260903130756 62 175 0.0 6.0 0.01 0.10 0.10 94 1014.6
20260903130253 62 178 0.0 3.0 0.01 0.10 0.10 94 1014.6
20260903125753 62 182 0.0 3.0 0.00 0.09 0.09 94 1014.8
20260903125251 62 181 0.0 5.0 0.00 0.09 0.09 94 1014.8
20260903124751 62 180 0.0 5.0 0.00 0.09 0.09 94 1014.9
20260903124256 62 170 0.0 3.0 0.00 0.09 0.09 94 1015.0
20260903123748 62 176 0.0 3.0 0.00 0.09 0.09 94 1015.0
20260903123249 62 173 0.0 5.0 0.00 0.09 0.09 94 1015.1
20260903122953 62 171 1.0 6.0 0.00 0.09 0.09 94 1015.2
20260903122836 62 173 0.0 5.0 0.00 0.09 0.09 94 1015.2
20260903121748 62 175 1.0 6.0 0.00 0.09 0.09 94 1015.5
20260903120955 62 190 0.0 4.0 0.00 0.09 0.09 94 1015.5
20260903120455 62 192 0.0 3.0 0.00 0.09 0.09 94 1015.2
20260903115952 62 192 0.0 4.0 0.00 0.09 0.09 94 1015.2
20260903115450 62 197 0.0 4.0 0.00 0.09 0.09 94 1015.5
20260903114945 62 171 0.0 4.0 0.00 0.09 0.09 93 1015.4
20260903114438 62 163 0.0 4.0 0.00 0.09 0.09 93 1015.4
20260903113933 61 162 0.0 4.0 0.00 0.09 0.09 93 1015.4
20260903113427 61 153 1.0 5.0 0.00 0.09 0.09 93 1015.3
20260903112921 61 142 1.0 6.0 0.00 0.09 0.09 93 1015.4
20260903112415 61 196 1.0 6.0 0.01 0.09 0.09 93 1015.5
20260903111910 61 195 0.0 6.0 0.01 0.09 0.09 93 1015.4
20260903111402 62 159 0.0 1.0 0.01 0.09 0.09 93 1015.4
20260903110856 61 159 0.0 2.0 0.01 0.09 0.09 93 1015.4
20260903110352 62 154 0.0 2.0 0.01 0.09 0.09 93 1015.5
20260903105846 62 161 0.0 7.0 0.01 0.09 0.09 93 1015.6
20260903105339 62 161 1.0 7.0 0.02 0.09 0.09 93 1015.6
20260903105057 62 162 1.0 6.0 0.06 0.09 0.09 93 1015.5
20260903104553 62 179 1.0 6.0 0.07 0.09 0.09 93 1015.6
20260903103821 63 180 1.0 6.0 0.08 0.09 0.09 94 1015.8
20260903103314 63 191 0.0 4.0 0.08 0.09 0.09 94 1015.8
20260903102808 63 177 0.0 4.0 0.08 0.08 0.08 94 1015.7
20260903102305 63 174 0.0 0.0 0.08 0.08 0.08 94 1015.7
20260903101759 63 175 0.0 0.0 0.08 0.08 0.08 93 1015.7
20260903101250 63 175 0.0 0.0 0.08 0.08 0.08 93 1015.7
20260903100744 63 175 0.0 0.0 0.08 0.08 0.08 93 1015.8
20260903100240 63 175 0.0 0.0 0.08 0.08 0.08 93 1015.7
20260903095732 64 175 0.0 0.0 0.08 0.08 0.08 93 1015.8
20260903095226 64 175 0.0 0.0 0.07 0.07 0.07 93 1015.9
20260903094721 64 175 0.0 0.0 0.03 0.03 0.03 93 1015.9
20260903094215 64 175 0.0 0.0 0.02 0.02 0.02 93 1016.0
20260903093708 64 175 0.0 0.0 0.01 0.01 0.01 93 1016.2
20260903093202 64 175 0.0 0.0 0.01 0.01 0.01 93 1016.3
20260903092657 64 175 0.0 0.0 0.00 0.00 0.00 93 1016.3
20260903092150 64 175 0.0 0.0 0.00 0.00 0.00 93 1016.3
20260903091646 64 175 0.0 0.0 0.00 0.00 0.00 93 1016.4
20260903091138 64 175 0.0 0.0 0.00 0.00 0.00 93 1016.4
20260903090632 64 172 0.0 0.0 0.00 0.00 0.00 93 1015.9
20260903090127 64 172 0.0 2.0 0.00 0.00 0.00 93 1015.7
20260903085620 64 172 0.0 2.0 0.00 0.00 0.00 93 1015.7
20260903085114 64 180 0.0 2.0 0.00 0.00 0.00 93 1015.7
20260903084832 64 182 0.0 5.0 0.00 0.00 0.00 94 1015.5
20260903084103 64 169 0.0 5.0 0.00 0.00 0.00 94 1015.6
20260903083603 64 167 0.0 4.0 0.00 0.00 0.00 94 1015.7
20260903083102 64 167 0.0 6.0 0.00 0.00 0.00 94 1015.9
20260903082603 64 158 1.0 6.0 0.00 0.00 0.00 95 1015.9
20260903082101 64 169 0.0 5.0 0.00 0.00 0.00 95 1015.8
20260903081600 63 154 0.0 5.0 0.00 0.00 0.00 95 1015.8
20260903081547 63 134 0.0 2.0 0.00 0.00 0.00 95 1015.8
20260903080601 63 143 0.0 0.0 0.00 0.00 0.00 95 1015.9
20260903080320 63 141 0.0 0.0 0.00 0.00 0.00 96 1015.8
20260903075559 63 141 0.0 0.0 0.00 0.00 0.00 95 1015.9
20260903075056 63 140 0.0 0.0 0.00 0.00 0.00 95 1016.1
20260903074556 62 140 0.0 0.0 0.00 0.00 0.00 95 1016.1
20260903074055 63 140 0.0 0.0 0.00 0.00 0.00 95 1016.1
20260903073555 62 140 0.0 0.0 0.00 0.00 0.00 96 1016.3
20260903073318 62 132 0.0 0.0 0.00 0.00 0.00 96 1016.2
20260903072550 62 132 0.0 0.0 0.00 0.00 0.00 96 1016.1
20260903072050 62 132 0.0 0.0 0.00 0.00 0.00 95 1016.2
20260903071551 62 131 0.0 0.0 0.00 0.00 0.00 95 1016.5
20260903071052 62 131 0.0 0.0 0.00 0.00 0.00 96 1016.7
20260903070550 62 131 0.0 0.0 0.00 0.00 0.00 96 1016.7
20260903070050 62 131 0.0 0.0 0.00 0.00 0.00 95 1016.8
20260903065551 62 131 0.0 0.0 0.00 0.00 0.00 95 1016.9
20260903065050 62 131 0.0 0.0 0.00 0.00 0.00 95 1017.1
20260903064550 62 131 0.0 0.0 0.00 0.00 0.00 95 1017.1
20260903064051 62 131 0.0 0.0 0.00 0.00 0.00 95 1017.3
20260903063551 62 131 0.0 0.0 0.00 0.00 0.00 95 1017.5
20260903063048 62 131 0.0 0.0 0.00 0.00 0.00 95 1017.5
20260903062548 62 131 0.0 0.0 0.00 0.00 0.00 95 1017.6
20260903062048 62 131 0.0 0.0 0.00 0.00 0.00 95 1017.5
20260903061549 62 131 0.0 0.0 0.00 0.00 0.00 95 1017.5
20260903061048 62 131 0.0 0.0 0.00 0.00 0.00 95 1017.7
20260903060549 62 131 0.0 0.0 0.00 0.00 0.00 95 1017.9
20260903060049 62 131 0.0 0.0 0.00 0.00 0.00 95 1017.8
20260903055544 62 131 0.0 0.0 0.00 0.00 0.00 95 1017.7
20260903055044 62 131 0.0 0.0 0.00 0.00 0.00 95 1017.8
20260903054544 62 131 0.0 0.0 0.00 0.00 0.00 95 1018.0
20260903054044 62 131 0.0 0.0 0.00 0.00 0.00 95 1018.2
20260903053545 62 131 0.0 0.0 0.00 0.00 0.00 95 1018.2
20260903053044 62 131 0.0 0.0 0.00 0.00 0.00 95 1018.2
20260903052544 62 131 0.0 0.0 0.00 0.00 0.00 95 1018.1
20260903052526 62 131 0.0 0.0 0.00 0.00 0.00 95 1018.0
20260903051545 61 131 0.0 0.0 0.00 0.00 0.00 95 1018.1
20260903051040 61 131 0.0 0.0 0.00 0.00 0.00 95 1018.2
20260903050541 61 131 0.0 0.0 0.00 0.00 0.00 95 1018.2
20260903050041 61 131 0.0 0.0 0.00 0.00 0.00 95 1018.2
20260903045540 62 131 0.0 0.0 0.00 0.00 0.00 95 1018.3
20260903045040 62 132 0.0 0.0 0.00 0.00 0.00 95 1018.3
20260903044542 62 132 0.0 0.0 0.00 0.00 0.00 95 1018.3
20260903044041 62 132 0.0 0.0 0.00 0.00 0.00 95 1018.4
20260903043540 62 132 0.0 0.0 0.00 0.00 0.00 95 1018.5
20260903043040 62 132 0.0 0.0 0.00 0.00 0.00 95 1018.7
20260903043021 62 132 0.0 0.0 0.00 0.00 0.00 95 1018.7
20260903042041 62 132 0.0 0.0 0.00 0.00 0.00 95 1018.8
20260903041540 62 132 0.0 0.0 0.00 0.00 0.00 95 1018.8
20260903041303 62 132 0.0 0.0 0.00 0.00 0.00 95 1018.8
20260903040540 62 132 0.0 0.0 0.00 0.00 0.00 95 1019.0
20260903040040 62 132 0.0 0.0 0.00 0.00 0.00 95 1019.0
20260903035541 62 132 0.0 0.0 0.00 0.00 0.00 95 1019.0
20260903035038 62 132 0.0 0.0 0.00 0.00 0.00 95 1019.1
20260903034802 62 132 0.0 0.0 0.00 0.00 0.00 94 1019.0
20260903034033 62 132 0.0 0.0 0.00 0.00 0.00 94 1019.1
20260903033525 62 132 0.0 0.0 0.00 0.00 0.00 94 1019.1
20260903033019 62 132 0.0 0.0 0.00 0.00 0.00 94 1019.2
20260903032514 62 132 0.0 0.0 0.00 0.00 0.00 94 1019.2
20260903032007 62 132 0.0 0.0 0.00 0.00 0.00 94 1019.2
20260903031501 62 132 0.0 0.0 0.00 0.00 0.00 94 1019.2
20260903030954 62 132 0.0 0.0 0.00 0.00 0.00 94 1019.4
20260903030448 62 132 0.0 0.0 0.00 0.00 0.00 94 1019.3
20260903030206 62 132 0.0 0.0 0.00 0.00 0.00 94 1019.1
20260903025436 62 132 0.0 0.0 0.00 0.00 0.00 94 1019.1
20260903024930 62 132 0.0 0.0 0.00 0.00 0.00 94 1019.3
20260903024424 62 132 0.0 0.0 0.00 0.00 0.00 94 1019.3
20260903023919 62 132 0.0 0.0 0.00 0.00 0.00 94 1019.5
20260903023412 62 132 0.0 0.0 0.00 0.00 0.00 94 1019.6
20260903022907 62 132 0.0 0.0 0.00 0.00 0.00 94 1019.7
20260903022623 62 132 0.0 0.0 0.00 0.00 0.00 94 1019.6
20260903022115 62 132 0.0 0.0 0.00 0.00 0.00 94 1019.6
20260903021349 62 132 0.0 0.0 0.00 0.00 0.00 94 1019.7
20260903020843 62 132 0.0 0.0 0.00 0.00 0.00 94 1019.7
20260903020337 62 132 0.0 0.0 0.00 0.00 0.00 94 1019.6
20260903015830 62 132 0.0 0.0 0.00 0.00 0.00 94 1019.6
20260903015324 62 132 0.0 0.0 0.00 0.00 0.00 94 1019.8
20260903015045 62 132 0.0 0.0 0.00 0.00 0.00 94 1019.8
20260903014313 62 132 0.0 0.0 0.00 0.00 0.00 94 1019.6
20260903013806 62 132 0.0 0.0 0.00 0.00 0.00 94 1019.7
20260903013301 62 132 0.0 0.0 0.00 0.00 0.00 94 1019.6
20260903012755 62 132 0.0 0.0 0.00 0.00 0.00 94 1019.7
20260903012248 62 132 0.0 0.0 0.00 0.00 0.00 93 1019.7
20260903011743 62 132 0.0 0.0 0.00 0.00 0.00 93 1019.6
20260903011456 62 132 0.0 0.0 0.00 0.00 0.00 93 1019.6
20260903010955 62 132 0.0 0.0 0.00 0.00 0.00 93 1019.8
20260903010225 62 132 0.0 0.0 0.00 0.00 0.00 93 1019.6
20260903005719 62 132 0.0 0.0 0.00 0.00 0.00 93 1019.4
20260903005438 62 132 0.0 0.0 0.00 0.00 0.00 93 1019.4
20260903004708 62 132 0.0 0.0 0.00 0.00 0.00 93 1019.5
20260903004201 62 132 0.0 0.0 0.00 0.00 0.00 93 1019.7
20260903004133 62 132 0.0 0.0 0.00 0.00 0.00 93 1019.8
20260903003408 62 132 0.0 0.0 0.00 0.00 0.00 93 1019.7
20260903002644 62 128 0.0 0.0 0.00 0.00 0.00 93 1019.6
20260903002137 62 128 0.0 0.0 0.00 0.00 0.00 93 1019.6
20260903001631 62 127 0.0 0.0 0.00 0.00 0.00 93 1019.7
20260903001124 62 127 0.0 0.0 0.00 0.00 0.00 93 1019.8
20260903000619 62 127 0.0 0.0 0.00 0.00 0.00 93 1019.8
20260903000113 62 127 0.0 0.0 0.00 0.00 0.00 93 1019.8
20260902235607 62 127 0.0 0.0 0.00 0.00 0.00 93 1020.1
20260902235102 62 127 0.0 0.0 0.00 0.00 0.00 93 1020.1
20260902234554 62 127 0.0 0.0 0.00 0.00 0.00 93 1020.2
20260902234049 62 127 0.0 0.0 0.00 0.00 0.00 93 1020.4
20260902233543 62 127 0.0 0.0 0.00 0.00 0.00 93 1020.4
20260902233037 62 127 0.0 0.0 0.00 0.00 0.00 93 1020.5
20260902232531 62 127 0.0 0.0 0.00 0.00 0.00 93 1020.5
20260902232025 62 127 0.0 0.0 0.00 0.00 0.00 93 1020.4
20260902231518 62 127 0.0 0.0 0.00 0.00 0.00 93 1020.3
20260902231012 62 128 0.0 0.0 0.00 0.00 0.00 92 1020.3
20260902230506 62 127 0.0 0.0 0.00 0.00 0.00 92 1020.3
20260902230005 62 127 0.0 0.0 0.00 0.00 0.00 92 1020.3
20260902225724 62 127 0.0 0.0 0.00 0.00 0.00 92 1020.5
20260902225226 62 127 0.0 0.0 0.00 0.00 0.00 92 1020.7
20260902224504 62 127 0.0 0.0 0.00 0.00 0.00 92 1020.8
20260902224222 62 127 0.0 0.0 0.00 0.00 0.00 92 1020.8
20260902223501 62 127 0.0 0.0 0.00 0.00 0.00 92 1020.8
20260902223001 62 127 0.0 0.0 0.00 0.00 0.00 92 1020.9
20260902222459 62 126 0.0 0.0 0.00 0.00 0.00 92 1020.8
20260902221957 62 126 0.0 0.0 0.00 0.00 0.00 92 1020.9
20260902221458 62 126 0.0 0.0 0.00 0.00 0.00 92 1020.9
20260902220958 62 126 0.0 0.0 0.00 0.00 0.00 92 1020.8
20260902220457 62 126 0.0 3.0 0.00 0.00 0.00 92 1020.9
20260902215956 62 126 0.0 3.0 0.00 0.00 0.00 92 1020.8
20260902215455 62 86 0.0 0.0 0.00 0.00 0.00 92 1020.8
20260902214953 62 86 0.0 0.0 0.00 0.00 0.00 91 1020.9
20260902214454 62 86 0.0 0.0 0.00 0.00 0.00 92 1021.0
20260902214212 62 86 0.0 0.0 0.00 0.00 0.00 92 1020.8
20260902213453 62 86 0.0 0.0 0.00 0.00 0.00 92 1020.8
20260902212952 62 86 0.0 1.0 0.00 0.00 0.00 92 1020.9
20260902212447 62 86 0.0 1.0 0.00 0.00 0.00 91 1020.8
20260902211939 62 84 0.0 1.0 0.00 0.00 0.00 91 1020.9
20260902211434 62 84 0.0 1.0 0.00 0.00 0.00 91 1020.7
20260902210929 63 69 0.0 2.0 0.00 0.00 0.00 91 1020.8
20260902210421 63 70 0.0 2.0 0.00 0.00 0.00 90 1020.9
20260902210138 63 137 0.0 0.0 0.00 0.00 0.00 91 1020.9
20260902205409 63 144 0.0 0.0 0.00 0.00 0.00 91 1021.1
20260902204904 63 165 0.0 1.0 0.00 0.00 0.00 91 1021.2
20260902204358 63 165 0.0 1.0 0.00 0.00 0.00 91 1021.4
20260902203851 63 165 0.0 0.0 0.00 0.00 0.00 91 1021.4
20260902203346 63 165 0.0 4.0 0.00 0.00 0.00 91 1021.4
20260902202839 63 165 0.0 4.0 0.00 0.00 0.00 91 1021.4
20260902202340 63 101 0.0 3.0 0.00 0.00 0.00 91 1021.2
20260902202057 63 103 0.0 3.0 0.00 0.00 0.00 91 1021.3
20260902201340 63 101 0.0 3.0 0.00 0.00 0.00 91 1021.3
20260902200840 63 110 0.0 3.0 0.00 0.00 0.00 90 1021.3
20260902200335 63 109 0.0 3.0 0.00 0.00 0.00 90 1021.5
20260902195833 63 107 0.0 3.0 0.00 0.00 0.00 91 1021.5
20260902195334 63 69 0.0 1.0 0.00 0.00 0.00 90 1021.7
20260902194834 63 70 0.0 2.0 0.00 0.00 0.00 90 1021.9
20260902194333 63 69 0.0 2.0 0.00 0.00 0.00 90 1021.9
20260902193834 63 70 0.0 0.0 0.00 0.00 0.00 90 1021.9
20260902193558 63 69 0.0 1.0 0.00 0.00 0.00 90 1021.9
20260902193323 63 70 0.0 1.0 0.00 0.00 0.00 90 1021.9
20260902192333 63 74 0.0 2.0 0.00 0.00 0.00 89 1022.0
20260902191830 64 74 0.0 2.0 0.00 0.00 0.00 89 1022.0
20260902191327 64 127 0.0 0.0 0.00 0.00 0.00 89 1021.9
20260902190827 64 127 0.0 2.0 0.00 0.00 0.00 89 1021.8
20260902190327 63 128 0.0 2.0 0.00 0.00 0.00 89 1021.7
20260902185826 63 69 0.0 1.0 0.00 0.00 0.00 90 1021.8
20260902185327 63 69 0.0 0.0 0.00 0.00 0.00 90 1021.8
20260902184821 63 67 0.0 1.0 0.00 0.00 0.00 89 1021.9
20260902184533 63 67 0.0 2.0 0.00 0.00 0.00 90 1022.0
20260902183809 63 67 0.0 2.0 0.00 0.00 0.00 90 1022.0
20260902183533 63 63 0.0 2.0 0.00 0.00 0.00 90 1021.9
20260902182811 63 63 0.0 2.0 0.00 0.00 0.00 90 1022.0
20260902182307 63 119 0.0 4.0 0.00 0.00 0.00 90 1022.0
20260902181805 63 127 0.0 4.0 0.00 0.00 0.00 90 1022.1
20260902181303 63 80 0.0 1.0 0.00 0.00 0.00 89 1022.2
20260902180803 63 80 0.0 1.0 0.00 0.00 0.00 89 1022.2
20260902180530 63 73 0.0 1.0 0.00 0.00 0.00 89 1022.2
20260902175759 63 73 0.0 1.0 0.00 0.00 0.00 88 1022.2
20260902175515 63 82 0.0 2.0 0.00 0.00 0.00 89 1022.0
20260902174753 64 81 0.0 5.0 0.00 0.00 0.00 88 1022.1
20260902174251 64 101 0.0 5.0 0.00 0.00 0.00 87 1021.9
20260902173753 64 103 0.0 2.0 0.00 0.00 0.00 88 1021.9
20260902173251 64 107 0.0 2.0 0.00 0.00 0.00 87 1022.0
20260902172749 64 107 0.0 2.0 0.00 0.00 0.00 88 1022.0
20260902172247 64 154 0.0 2.0 0.00 0.00 0.00 88 1022.0
20260902171748 64 67 0.0 3.0 0.00 0.00 0.00 87 1022.0
20260902171246 64 96 0.0 4.0 0.00 0.00 0.00 87 1022.0
20260902170746 64 119 0.0 4.0 0.00 0.00 0.00 86 1022.0
20260902170450 64 69 0.0 1.0 0.00 0.00 0.00 86 1021.9
20260902170335 64 86 0.0 2.0 0.00 0.00 0.00 86 1022.0
20260902165246 65 136 1.0 5.0 0.00 0.00 0.00 86 1022.0
20260902164743 64 155 1.0 5.0 0.00 0.00 0.00 87 1022.0
20260902164243 64 74 0.0 2.0 0.00 0.00 0.00 88 1022.0
20260902163743 64 74 0.0 4.0 0.00 0.00 0.00 88 1022.0
20260902163243 63 69 0.0 4.0 0.00 0.00 0.00 88 1022.2
20260902162742 64 42 0.0 4.0 0.00 0.00 0.00 87 1022.4
20260902162241 64 57 0.0 4.0 0.00 0.00 0.00 87 1022.4
20260902161741 64 51 0.0 3.0 0.00 0.00 0.00 87 1022.4
20260902161238 64 84 0.0 6.0 0.00 0.00 0.00 87 1022.5
20260902160958 64 95 1.0 6.0 0.00 0.00 0.00 87 1022.5
20260902160237 64 90 1.0 7.0 0.00 0.00 0.00 86 1022.6
20260902155737 64 91 1.0 7.0 0.00 0.00 0.00 86 1022.7
20260902155237 64 113 0.0 3.0 0.00 0.00 0.00 86 1022.6
20260902154737 64 67 0.0 3.0 0.00 0.00 0.00 87 1022.7
20260902154238 64 63 0.0 3.0 0.00 0.00 0.00 86 1022.8
20260902153959 64 61 0.0 4.0 0.00 0.00 0.00 86 1022.8
20260902153238 64 55 0.0 4.0 0.00 0.00 0.00 85 1022.7
20260902152735 64 76 1.0 7.0 0.00 0.00 0.00 85 1022.7
20260902152233 65 120 1.0 7.0 0.00 0.00 0.00 85 1022.7
20260902151733 64 57 0.0 6.0 0.00 0.00 0.00 86 1022.6
20260902151234 64 125 1.0 5.0 0.00 0.00 0.00 86 1022.4
20260902150733 64 80 1.0 5.0 0.00 0.00 0.00 86 1022.3
20260902150234 64 71 1.0 6.0 0.00 0.00 0.00 86 1022.3